Regional Weather Roundup
Issued by NWS Wakefield, VA

Home | Current Version | Previous Version | Text Only | Print | Product List | Glossary On
Versions: 1 2 3 4 5 6 7 8 9 10 11 12 13 14 15 16 17 18 19 20 21 22 23 24 25 26 27 28 29 30 31 32 33 34 35 36 37 38 39 40 41 42 43 44 45 46 47 48 49 50
000
ASUS41 KAKQ 011210
RWRAKQ

REGIONAL WEATHER ROUNDUP
NATIONAL WEATHER SERVICE WAKEFIELD VA
700 AM EST SUN MAR 01 2015

Note: "fair" indicates few or no clouds below 12,000 feet with no
significant weather and/or obstructions to visibility. * = Denotes
station may not report precipitation (e.g., rain,snow,etc.),
thunder or fog.

VAZ042-051-052>054-056-011300-
NORTHERN VIRGINIA

CITY           SKY/WX    TMP DP  RH WIND       PRES   REMARKS
WASH NATIONAL  CLOUDY    28  15  58 S5        30.67R
DULLES         CLOUDY    24  12  60 SE3       30.63F
FORT BELVOIR   CLOUDY    26  16  67 E1        30.66F
QUANTICO       CLOUDY    27  15  61 MISG      30.68S
FREDERICKSBRG* CLOUDY    27  17  67 CALM      30.66R
STAFFORD*      CLOUDY    25  13  62 CALM      30.70R
WARRENTON      CLOUDY    27  19  71 CALM      30.63S
CULPEPER*      CLOUDY    27  18  69 CALM      30.63F
MANASSAS*      NOT AVBL
LEESBURG*      CLOUDY    27  18  69 CALM      30.63F
WINCHESTER     CLOUDY    27  10  50 CALM      30.56F
FRONT ROYAL*   CLOUDY    23  14  68 CALM      30.56S
LURAY*         CLOUDY    30  18  59 S5        30.55F
$$

VAZ048-049-060>072-079>083-011300-
CENTRAL AND SOUTH CENTRAL VIRGINIA

CITY           SKY/WX    TMP DP  RH WIND       PRES   REMARKS
RICHMOND       CLOUDY    27  17  66 CALM      30.64F
CHESTERFIELD*  CLOUDY    27  10  50 CALM      30.65S
PETERSBURG*    CLOUDY    29  21  71 N5        30.64S
HANOVER        CLOUDY    26  16  65 CALM      30.66S
TAPPAHANNOCK*  CLOUDY    24  16  71 CALM      30.65S
QUINTON*       CLOUDY    26  19  76 MISG      30.64F
CHARLOTTSVILLE CLOUDY    25  15  66 CALM      30.60S
GORDONSVILLE*  CLOUDY    25  15  66 CALM      30.61F
ORANGE*        CLOUDY    28  18  64 CALM      30.63F
LOUISA*        CLOUDY    27  16  63 CALM      30.61S
BUMPASS*       CLOUDY    25  15  65 CALM      30.64R
FARMVILLE*     CLOUDY    29  17  60 CALM      30.63R
CREWE*         CLOUDY    26  18  71 CALM      30.62S
FORT PICKETT*  CLOUDY    26  19  72 N5        30.61F
CHASE CITY*    CLOUDY    29  24  82 CALM      30.62R
CLARKSVILLE*   CLOUDY    28  25  86 CALM      30.63R
SOUTH HILL*    CLOUDY    26  22  85 N3        30.67F
LAWRENCEVILLE* CLOUDY    26  23  87 NE5       30.60F
EMPORIA*       LGT SNOW  28  23  80 NW5       30.65F
$$

VAZ088>098-011300-
SOUTHEAST VIRGINIA

CITY           SKY/WX    TMP DP  RH WIND       PRES   REMARKS
NORFOLK        CLOUDY    31  25  78 N10       30.63R WCI  22
VIRGINIA BEACH CLOUDY    34  27  75 N10       30.62R
NORFOLK NAVAL  CLOUDY    33  24  69 NE12      30.64F WCI  24
WEST POINT*    CLOUDY    29  20  70 E3        30.65F
SALUDA*        CLOUDY    28  19  69 E8        30.64F
NEWPORT NEWS   CLOUDY    31  21  66 NE7       30.63F
LANGLEY AFB    CLOUDY    30  23  77 NE8       30.63F
FORT EUSTIS    CLOUDY    28  22  76 E3        30.62F
WILLIAMSBURG*  CLOUDY    30  23  74 E3        30.64F
HR EXEC AP*    CLOUDY    30  23  74 NE6       30.64F
FRANKLIN*      MIX PCPN  28  24  84 CALM      30.63F
WAKEFIELD      CLOUDY    28  20  71 NE3       30.63F
$$

VAZ020-022-025-037-045-011300-
WEST CENTRAL AND SOUTHWEST VIRGINIA

CITY           SKY/WX    TMP DP  RH WIND       PRES   REMARKS
STAUNTON*      CLOUDY    27  13  56 S3        30.55F
WAYNESBORO*    CLOUDY    25  13  60 CALM      30.53S
HOT SPRINGS VA LGT SNOW  32  32 100 SW20G25   30.39S WCI  20
LYNCHBURG      CLOUDY    26  15  63 CALM      30.60F
DANVILLE       FRZ RAIN  29  22  75 N3        30.61F
SOUTH BOSTON*  CLOUDY    28  23  84 CALM      30.61F
MARTINSVILLE   CLOUDY    29  22  75 CALM      30.62R
ROANOKE        CLOUDY    28  14  55 S3        30.58F
BLACKSBURG     CLOUDY    28  13  52 CALM      30.53S
DUBLIN*        CLOUDY    28  19  69 NE3       30.50F
MARION*        CLOUDY    30  20  67 E6        30.47F
HILLSVILLE*    CLOUDY    29  21  71 S6        30.45F
RICHLANDS*     CLOUDY    37  20  48 CALM      30.38S
WISE*          CLOUDY    39  28  65 W3        30.39R
ABINGDON*      MOCLDY    36  25  62 E3        30.42S
$$

MDZ021>025-VAZ099-100-011300-
SOUTHERN MARYLAND AND THE DELMARVA PENINSULA

CITY           SKY/WX    TMP DP  RH WIND       PRES   REMARKS
PATUXENT RIVER CLOUDY    28  15  58 SE6       30.66R
BAY BRIDGE APT   N/A     25  18  74 CALM      30.67R
LEONARDTOWN    CLOUDY    27  19  74 CALM      30.67R
DOVER          PTCLDY    22  16  78 S1        30.67S
GEORGETOWN     CLOUDY    20  13  74 CALM      30.67F
EASTON         MOCLDY    25  18  74 CALM      30.68F
CAMBRIDGE      MOCLDY    27  16  63 SE3       30.64F
SALISBURY      CLOUDY    24  14  65 E3        30.65F
OCEAN CITY     MOCLDY    21  18  88 E3        30.66F
WALLOPS ISLAND MOCLDY    26  19  74 NE6       30.66F
ACCOMACK*      CLOUDY    25  18  74 E6        30.64F
$$

NCZ012>017-030>032-011300-
NORTH CENTRAL AND EASTERN NORTH CAROLINA

CITY           SKY/WX    TMP DP  RH WIND       PRES   REMARKS
ROANOKE RAPIDS MIX PCPN  28  27  93 NE6       30.61F
RALEIGH        FRZ RAIN  29  24  82 NE5       30.60F FOG
ELIZABETH CITY CLOUDY    35  29  78 N9        30.61S
AHOSKIE*       MIX PCPN  28  24  85 CALM      30.62F
EDENTON*       CLOUDY    32  28  83 NE5       30.60F
CURRITUCK*     CLOUDY    35  29  79 NE8       30.61F
KILL DEVIL HLS MOCLDY    38  35  91 N5        30.56R
MANTEO         CLOUDY    39  36  87 N12       30.57S
CAPE HATTERAS  CLOUDY    40  38  93 N6        30.55S
TARBORO*       CLOUDY    30  26  85 N3        30.62S
GOLDSBORO      MIX PCPN  31  30  97 NE1       30.56F
WASHINGTON     DRIZZLE   31  27  83 N5        30.60S
GREENVILLE     MOCLDY    32  27  80 N6        30.59F
NEW BERN       LGT RAIN  33  28  81 NE7       30.58F
WILMINGTON     CLOUDY    36  31  82 NE9       30.54F
$$

VAZ048-011300-
ELSEWHERE

CITY           SKY/WX    TMP DP  RH WIND       PRES   REMARKS
HARRISBURG PA  FLURRIES  21  10  62 E3        30.61F
BALTIMORE      CLOUDY    22  12  65 CALM      30.65S
ANNAPOLIS      CLOUDY    24  19  81 NW6       30.66R
ANDREWS AFB    CLOUDY    23  12  63 S5        30.68S
PHILADELPHIA   CLOUDY    24  13  62 CALM      30.67F
HENDERSON NC   MIX PCPN  28  25  89 CALM      30.62R
GREENSBORO     FRZ RAIN  29  22  75 NE3       30.57S
ROCKY MOUNT    CLOUDY    30  24  78 N5        30.60F
$$

VAZ100-011300-
MARINE

STATION/POSITION TIME  TEMP    WIND        PRES    WAVE   SWELL
                       AIR SEA DIR/SP/G            HT/PER HT/PER
                 (UTC) (F)     (DEG/KT/KT) (MB)    (FT/S) (FT/S)
BRANDYWINE LGT   1200   27 29  120/  5/  5 1038.5S
CAPE MAY NJ      1200   23 32   90/  2/  2 1038.1S
LEWES DE         1200   24 30  140/  2/  3 1038.3F
15NM E FENWICK I 1200   31 33              1038.1F   2/10
OCEAN-CITY-INLET 1200   29 32   90/  2/  4 1038.3R
WACHAPREAGUE VA  1200   27 33   40/  7/  9 1037.5S
THOMAS POINT MD  1200   26 31  110/  2/  3 1039.2R
COVE POINT MD    1200   26     160/ 10/ 11 1037.7R
SOLOMONS ISLAND  1200      32                N/A
BISHOPS HEAD MD  1200   26 30  100/  8/ 10 1037.4F
CAMBRIDGE MD     1200   23 32   80/  5/  6 1037.5F
LEWISETTA VA     1200   26 33              1037.8S
RAPPAHANNOCK LGT 1200           30/  9/ 10 1038.2R
STINGRAY PT      1200   29      70/ 10/ 10   N/A
YORK RVR RNG VA  1200   30      60/ 10/ 12 1037.3F
YORKTOWN VA      1200   29 33   50/  5/  6 1037.6F
DOMINION TERM VA 1200   30      40/  5/  6 1037.4F
KIPTOPEKE VA     1200      36   60/  8/ 10   N/A
CHES BAY BRIDGE  1200   30 33  360/  7/  9 1037.1F
CAPE HENRY VA    1200   32      20/ 10/ 12 1035.9S
CHESAPEAKE LGHT  1100   35      40/ 16/ 18 1036.9F
WILLOUBY STN VA  1200   30      30/ 12/ 13 1037.9F
S CRANEY ISL VA  1200           40/  9/ 11 1037.3F
CAPE HENRY BUOY  1200      35                N/A     3/ 9
1ST LANDING BUOY 1200   32      30/ 10/ 12 1036.9S
OFFSHORE WE BUOY 1200      37                N/A     3/ 8   2/ 8
64NM E OF VA BCH 1200   55 63  120/ 14/ 17 1034.6F   4/10   2/10
DUCK PIER NC     1200   36 34  350/ 11/ 13 1034.9R
44100 DUCK FRF   1200      36                N/A     4/10   2/11
44056 DUCK FRF   1200      34                N/A     3/ 5
OREGON INLET NC  1200   38 38  360/  8/ 11 1035.0R
HATTERAS NC      1200   40 38   40/  6/  9 1034.8F
CAPE LOOKOUT NC  1100   38      20/ 11/ 13 1034.5R
$$


USA.gov is the U.S. government's official web portal to all federal, state and local government web resources and services.